Total_Precipitation_Accumulation
0.02 0.06 0.13 0.28 0.67 1.08 1.06 0.64 0.42 0.21 0.24 0.35 0.47 0.56 0.52 0.50 0.64 0.97 0.50 0.18 0.07 0.03 0.06 0.12 0.20 0.15 0.13 0.13 0.16 0.17 0.17 0.16 0.15 0.12 0.10 0.11 0.12 0.14 0.18 0.23 0.26 0.27 0.29 0.31 0.30 0.32 0.33 0.33 0.34
0.04 0.09 0.17 0.43 0.88 0.98 0.82 0.50 0.26 0.20 0.23 0.36 0.43 0.39 0.36 0.32 0.28 0.20 0.23 0.23 0.13 0.06 0.05 0.05 0.13 0.15 0.12 0.12 0.14 0.17 0.16 0.14 0.14 0.13 0.12 0.14 0.16 0.20 0.24 0.30 0.30 0.29 0.29 0.28 0.28 0.31 0.28 0.33 0.37
0.05 0.10 0.22 0.52 0.71 0.60 0.47 0.29 0.23 0.23 0.32 0.42 0.42 0.34 0.34 0.38 0.22 0.13 0.18 0.21 0.14 0.06 0.04 0.06 0.10 0.12 0.11 0.12 0.14 0.15 0.15 0.15 0.14 0.14 0.16 0.18 0.22 0.25 0.26 0.29 0.29 0.28 0.29 0.29 0.30 0.32 0.26 0.28 0.35
0.06 0.12 0.26 0.39 0.37 0.32 0.27 0.23 0.21 0.22 0.37 0.54 0.57 0.40 0.28 0.26 0.20 0.15 0.16 0.13 0.09 0.07 0.05 0.07 0.12 0.12 0.12 0.13 0.16 0.17 0.15 0.15 0.15 0.15 0.17 0.21 0.24 0.28 0.27 0.28 0.27 0.28 0.30 0.29 0.30 0.29 0.28 0.31 0.34
0.06 0.15 0.37 0.33 0.26 0.24 0.23 0.20 0.20 0.23 0.31 0.55 0.64 0.58 0.44 0.34 0.27 0.20 0.21 0.11 0.07 0.07 0.08 0.10 0.14 0.14 0.13 0.13 0.15 0.16 0.15 0.16 0.17 0.16 0.17 0.21 0.26 0.27 0.26 0.26 0.27 0.29 0.32 0.29 0.26 0.26 0.33 0.40 0.47
0.08 0.17 0.24 0.24 0.16 0.14 0.14 0.15 0.23 0.27 0.43 0.54 0.55 0.62 0.59 0.45 0.36 0.23 0.25 0.15 0.09 0.07 0.08 0.12 0.15 0.14 0.14 0.15 0.16 0.17 0.17 0.17 0.18 0.18 0.18 0.21 0.25 0.27 0.27 0.27 0.28 0.30 0.32 0.31 0.30 0.27 0.32 0.37 0.44
0.06 0.13 0.15 0.18 0.13 0.11 0.10 0.14 0.27 0.34 0.61 0.74 0.78 0.72 0.74 0.64 0.40 0.29 0.29 0.23 0.20 0.15 0.11 0.14 0.15 0.15 0.18 0.19 0.20 0.20 0.21 0.21 0.21 0.21 0.21 0.23 0.23 0.26 0.28 0.30 0.30 0.31 0.34 0.34 0.34 0.34 0.35 0.35 0.41
0.02 0.04 0.09 0.11 0.10 0.09 0.10 0.12 0.23 0.32 0.52 0.59 0.72 0.83 0.97 0.75 0.48 0.41 0.42 0.41 0.40 0.39 0.33 0.25 0.23 0.24 0.24 0.24 0.25 0.26 0.26 0.26 0.26 0.24 0.27 0.31 0.33 0.33 0.36 0.35 0.37 0.38 0.40 0.43 0.45 0.46 0.46 0.49 0.50
0.01 0.02 0.05 0.07 0.06 0.06 0.07 0.13 0.19 0.34 0.44 0.46 0.60 0.73 0.87 0.64 0.55 0.61 0.71 0.73 0.71 0.68 0.67 0.49 0.41 0.36 0.37 0.34 0.31 0.37 0.37 0.38 0.38 0.41 0.44 0.58 0.79 0.75 0.75 0.59 0.61 0.61 0.61 0.66 0.69 0.69 0.72 0.69 0.67
0.01 0.02 0.03 0.02 0.03 0.04 0.07 0.13 0.19 0.32 0.70 0.88 1.01 0.92 0.76 0.72 0.74 0.78 0.86 0.87 0.91 0.90 0.75 0.70 0.70 0.53 0.51 0.52 0.57 0.77 0.75 0.75 0.79 0.85 0.84 1.13 1.25 1.18 0.88 0.85 1.02 1.06 1.10 1.11 1.15 1.26 1.22 1.01 0.84
0.01 0.02 0.01 0.01 0.01 0.02 0.05 0.11 0.13 0.27 0.80 1.33 1.46 1.14 0.80 0.89 0.99 1.06 1.10 1.17 1.06 1.06 0.91 1.01 0.97 0.82 0.76 0.91 0.78 0.93 1.16 1.30 1.30 1.27 1.40 1.56 1.34 1.14 1.01 1.15 1.36 1.41 1.46 1.47 1.62 1.84 1.64 1.62 1.58
0.00 0.00 0.00 0.00 0.01 0.02 0.04 0.12 0.16 0.29 0.74 1.17 1.20 0.96 0.79 0.97 1.11 1.34 1.44 1.57 1.61 1.54 1.48 1.48 1.49 1.40 1.32 1.16 1.15 1.09 1.12 1.23 1.39 1.45 1.44 1.63 1.66 1.59 1.49 1.48 1.46 1.51 1.62 1.87 1.91 2.06 2.16 2.21 2.00
0.00 0.00 0.00 0.00 0.01 0.03 0.06 0.11 0.21 0.38 0.51 0.57 0.68 0.72 0.81 1.08 1.37 1.72 1.87 2.02 2.08 2.27 2.36 2.35 2.21 1.94 1.95 1.86 1.64 1.34 1.35 1.32 1.34 1.58 1.63 1.72 1.82 1.90 1.89 1.76 1.71 1.51 1.60 1.91 2.18 2.10 2.27 2.43 2.30
0.00 0.00 0.01 0.01 0.01 0.03 0.05 0.11 0.25 0.45 0.47 0.50 0.59 0.65 0.78 1.19 1.70 2.17 2.23 2.32 2.51 3.07 3.45 3.23 3.03 2.68 2.51 2.38 2.19 2.06 1.78 1.69 1.53 1.64 1.75 1.91 2.07 2.13 2.10 1.92 1.83 1.57 1.55 1.79 2.06 2.08 2.27 2.32 2.33
0.00 0.01 0.03 0.04 0.03 0.08 0.08 0.18 0.40 0.59 0.48 0.51 0.66 0.71 0.80 1.17 1.62 2.35 2.68 2.87 3.09 3.72 4.21 3.95 3.80 3.74 3.46 3.23 2.79 2.34 2.00 1.81 1.91 2.01 2.13 2.24 2.32 2.36 2.31 2.13 1.85 1.73 1.81 1.92 1.94 2.00 2.38 2.25 2.15
0.01 0.01 0.06 0.08 0.06 0.10 0.13 0.44 0.61 0.64 0.55 0.58 0.83 0.81 0.82 1.12 1.61 2.32 2.91 3.34 3.64 3.94 4.29 4.57 4.30 4.60 4.47 4.07 3.51 3.00 2.70 2.55 2.44 2.38 2.45 2.31 2.29 2.31 2.43 2.11 1.75 1.88 2.04 2.08 2.02 2.06 2.30 2.33 2.42
0.01 0.03 0.07 0.11 0.11 0.10 0.16 0.55 0.70 0.51 0.56 0.69 0.85 0.91 0.97 1.20 1.55 2.02 2.65 3.18 3.69 4.21 4.66 5.06 5.27 5.34 4.90 4.46 3.96 3.60 3.33 3.07 2.71 2.26 2.01 1.86 1.76 1.72 1.75 1.48 1.40 1.57 1.67 1.56 1.48 1.78 1.97 2.06 2.17
0.02 0.05 0.11 0.23 0.19 0.12 0.17 0.45 0.60 0.54 0.56 0.74 0.94 0.93 1.02 1.22 1.57 1.96 2.48 2.94 3.52 4.31 5.13 5.53 5.61 5.20 4.73 4.31 3.72 3.41 3.13 2.86 2.53 2.08 1.70 1.46 1.37 1.30 1.33 1.10 1.07 1.31 1.43 1.39 1.48 1.61 1.61 1.54 1.60
0.02 0.05 0.12 0.20 0.13 0.13 0.24 0.44 0.53 0.61 0.67 0.83 0.99 0.98 1.05 1.16 1.51 1.95 2.42 2.94 3.58 4.43 5.34 5.65 5.33 4.75 4.25 3.75 3.15 2.65 2.36 2.14 2.05 1.79 1.47 1.34 1.30 1.28 1.36 1.15 1.23 1.31 1.33 1.32 1.35 1.41 1.33 1.14 1.29
0.05 0.07 0.12 0.16 0.11 0.13 0.21 0.43 0.65 0.78 0.87 0.85 0.90 0.98 0.96 1.17 1.57 2.06 2.63 3.05 3.39 3.90 4.63 4.83 4.40 3.77 3.17 2.78 2.53 2.31 2.18 1.86 1.65 1.57 1.42 1.18 1.15 1.16 1.18 1.16 0.98 1.01 1.10 1.01 1.04 1.24 1.26 1.06 1.15
0.07 0.08 0.12 0.15 0.08 0.13 0.20 0.51 0.81 0.95 0.80 0.65 0.57 0.67 0.72 0.90 1.41 2.11 2.61 2.90 3.18 3.37 3.34 3.39 3.18 2.66 2.34 2.18 2.08 1.99 2.01 1.81 1.54 1.39 1.22 1.03 0.96 0.95 0.97 0.94 0.91 0.99 0.98 1.00 1.00 1.03 1.11 1.05 0.97
0.07 0.05 0.05 0.05 0.07 0.21 0.30 0.77 1.05 0.97 0.83 0.65 0.50 0.50 0.54 0.77 1.24 1.97 2.23 2.30 2.39 2.50 2.30 2.28 2.31 2.11 2.00 1.90 1.81 1.64 1.40 1.29 1.23 1.21 1.14 1.02 0.92 0.86 0.84 0.84 0.79 0.85 0.87 1.02 0.87 0.89 0.97 0.98 0.86
0.05 0.04 0.04 0.07 0.11 0.25 0.43 0.74 1.05 0.92 0.92 0.68 0.49 0.44 0.52 0.64 0.92 1.26 1.29 1.40 1.51 1.62 1.66 1.80 2.01 1.99 1.86 1.81 1.84 1.80 1.46 1.28 1.23 1.21 1.21 1.09 0.95 0.86 0.83 0.82 0.82 0.80 0.76 0.82 0.86 0.94 0.90 0.89 0.84
0.04 0.05 0.11 0.23 0.34 0.66 0.67 0.73 1.07 0.95 0.76 0.52 0.42 0.44 0.39 0.44 0.61 0.81 0.86 0.89 0.97 1.04 1.15 1.33 1.70 1.83 1.73 1.66 1.68 1.63 1.52 1.45 1.32 1.15 1.06 1.02 0.96 0.93 0.92 0.87 0.89 0.83 0.78 0.81 0.81 0.82 0.81 0.87 0.93
0.05 0.09 0.26 0.60 1.00 1.12 0.69 0.71 1.01 0.66 0.44 0.33 0.28 0.30 0.33 0.42 0.51 0.64 0.79 0.81 0.75 0.73 0.81 0.96 1.21 1.33 1.36 1.42 1.51 1.55 1.57 1.52 1.34 1.19 1.05 0.99 0.90 0.88 0.98 0.96 0.92 0.91 0.90 0.85 0.83 0.81 0.80 0.87 0.96
0.07 0.09 0.18 0.36 0.47 0.59 0.59 0.97 1.10 0.57 0.37 0.27 0.20 0.21 0.29 0.35 0.37 0.41 0.51 0.51 0.50 0.55 0.58 0.67 0.81 0.93 1.02 1.12 1.24 1.34 1.35 1.32 1.22 1.23 1.13 1.02 0.91 0.87 0.95 0.98 0.89 0.85 0.86 0.84 0.91 0.82 0.77 0.86 0.94
0.06 0.06 0.07 0.08 0.14 0.36 0.65 0.89 0.82 0.51 0.34 0.24 0.19 0.16 0.19 0.21 0.22 0.23 0.24 0.25 0.30 0.38 0.49 0.58 0.66 0.74 0.82 0.90 1.04 1.15 1.18 1.17 1.19 1.20 1.10 1.03 1.03 0.95 0.97 0.91 0.91 0.88 0.84 0.86 0.93 0.87 0.88 0.91 0.90
0.07 0.06 0.06 0.05 0.15 0.33 0.60 0.89 0.90 0.59 0.41 0.30 0.21 0.18 0.21 0.21 0.21 0.19 0.17 0.16 0.17 0.21 0.35 0.50 0.56 0.68 0.80 0.85 0.86 0.90 1.05 1.06 1.08 1.08 1.02 1.07 1.06 1.01 1.05 1.04 0.96 0.94 0.92 0.97 1.05 1.00 0.98 1.04 1.07
0.06 0.06 0.06 0.06 0.08 0.19 0.44 0.67 0.57 0.41 0.27 0.23 0.20 0.20 0.24 0.25 0.24 0.17 0.15 0.14 0.15 0.16 0.25 0.36 0.45 0.56 0.66 0.69 0.72 0.85 0.95 0.96 0.94 0.95 0.92 0.95 0.95 0.95 0.96 0.98 0.99 0.97 1.03 1.19 1.39 1.35 1.28 1.29 1.32
0.06 0.06 0.07 0.09 0.09 0.13 0.24 0.34 0.27 0.27 0.22 0.21 0.21 0.23 0.29 0.36 0.33 0.24 0.20 0.17 0.19 0.19 0.20 0.27 0.31 0.35 0.40 0.49 0.56 0.69 0.84 0.84 0.83 0.85 0.93 0.97 0.92 0.85 0.78 0.82 0.88 0.87 0.97 1.16 1.44 1.56 1.56 1.54 1.46